This demonstration page uses our WeatherBlox Daily Observations layout. Learn more.

Left ArrowRight Arrow

39.01783, -85.05884

Hourly Observations for March 24, 2020

Temp ( °F °C ) Dew Point ( °F °C ) Humidity (%) Winds ( mph kmh ) Pressure ( in mb ) Visibility ( mi km ) Precip ( " mm )
12:52 am 00:52 Clear 40 4.4 34 1.1 79 79 NNE 7 11 30.16 1021 10 16 0.00 0.00
1:52 am 01:52 Mostly Cloudy 40 4.4 34 1.1 79 79 NE 6 9 30.16 1021 8 13 0.00 0.00
2:52 am 02:52 Cloudy 39 3.9 34 1.1 82 82 ENE 3 6 30.16 1021 8 13 0.00 0.00
3:52 am 03:52 Cloudy 39 3.9 34 1.1 82 82 ENE 5 7 30.15 1021 7 11 0.00 0.00
4:52 am 04:52 Cloudy 38 3.3 33 0.6 83 83 ENE 6 9 30.14 1021 8 13 0.00 0.00
5:52 am 05:52 Cloudy 37 2.8 34 1.1 89 89 E 9 15 30.11 1020 10 16 0.00 0.00
6:52 am 06:52 Mostly Cloudy 39 3.9 34 1.1 82 82 ENE 10 17 30.14 1021 8 13 0.00 0.00
7:52 am 07:52 Cloudy 39 3.9 34 1.1 82 82 NE 10 17 30.14 1021 7 11 0.00 0.00
8:18 am 08:18 Mostly Cloudy with Haze 40 4.4 35 1.7 83 83 NE 8 13 30.18 1022 6 10 0.00 0.00
8:52 am 08:52 Mostly Cloudy with Haze 41 5 35 1.7 79 79 ENE 12 19 30.13 1020 6 10 0.00 0.00
9:52 am 09:52 Mostly Cloudy 42 5.6 36 2.2 79 79 E 15 24 30.09 1019 7 11 0.00 0.00
10:52 am 10:52 Cloudy 46 7.8 37 2.8 71 71 ESE 8 13 30.09 1019 8 13 0.00 0.00
11:52 am 11:52 Cloudy 49 9.4 39 3.9 69 69 E 8 13 30.08 1019 9 14 0.00 0.00
12:52 pm 12:52 Cloudy 50 10 39 3.9 66 66 E 14 22 30.03 1017 10 16 0.00 0.00
1:52 pm 13:52 Cloudy 52 11.1 40 4.4 64 64 SE 10 17 30.02 1017 10 16 0.00 0.00
2:52 pm 14:52 Cloudy 53 11.7 39 3.9 59 59 E 9 15 29.98 1015 10 16 0.00 0.00
3:52 pm 15:52 Cloudy 53 11.7 39 3.9 59 59 ENE 10 17 29.95 1014 10 16 0.00 0.00
4:52 pm 16:52 Cloudy 53 11.7 39 3.9 59 59 NE 10 17 29.94 1014 10 16 0.00 0.00
5:52 pm 17:52 Cloudy with Light Rain 51 10.6 41 5 69 69 ENE 10 17 29.93 1013 6 10 0.00 0.00
6:52 pm 18:52 Cloudy with Light Rain 49 9.4 43 6.1 80 80 NE 9 15 29.89 1012 7 11 0.04 1.02
7:52 pm 19:52 Cloudy with Light Rain 48 8.9 44 6.7 86 86 N 9 15 29.91 1013 6 10 0.04 1.02
8:52 pm 20:52 Cloudy with Light Rain 47 8.3 42 5.6 83 83 NNE 16 26 29.91 1013 7 11 0.07 1.78
9:52 pm 21:52 Cloudy with Light Rain 46 7.8 40 4.4 79 79 NNE 16 26 29.90 1012 9 14 0.00 0.00
10:52 pm 22:52 Cloudy with Light Rain 45 7.2 40 4.4 83 83 NNE 17 28 29.88 1012 7 11 0.00 0.00
11:52 pm 23:52 Cloudy with Light Rain 45 7.2 39 3.9 80 80 ENE 14 22 29.87 1012 6 10 0.01 0.25

Powered by AerisWeather